{"data":{"norad_id":69469,"intl_designator":"2026-127AC","name":"STARLINK-37708","alt_names":[],"object_type":"PAYLOAD","status":"ACTIVE","operator":null,"country":"US","launch_date":"2026-06-08","launch_site_code":"AFETR","launch_vehicle":null,"mission":null,"orbit_class":"UNKNOWN","rcs_meters":null,"size_class":null,"mass_kg":null,"dimensions":null,"purposes":["comms"],"wikipedia_slug":null,"has_3d_model":false,"image_url":null,"decayed_at":null,"tle_current":{"epoch":"2026-09-20T03:01:27.765984Z","epoch_age_seconds":57808,"freshness":"FRESH","line1":"1 69469U 26127AC  26263.12601581  .00012378  00000+0  37679-3 0  9990","line2":"2 69469  53.1585 167.5308 0001309 101.9754 258.1396 15.34405913 16133","mean_motion":15.34405913,"eccentricity":0.0001309,"inclination_deg":53.1585,"raan_deg":167.5308,"arg_perigee_deg":101.9754,"mean_anomaly_deg":258.1396,"bstar":0.00037679,"rev_number":1613,"period_min":93.847396428796,"perigee_km":461.79020189451,"apogee_km":463.58112926836,"semimajor_km":6840.8226655814,"source":"CELESTRAK","updated_at":"2026-09-20T09:00:44.204299Z"}}}